Regional Weather Roundup
Issued by NWS

Home | Current Version | Previous Version | Graphics & Text | Print | Product List | Glossary On
Versions: 1 2 3 4 5 6 7 8 9 10 11 12 13 14 15 16 17 18 19 20 21 22 23 24 25 26 27 28 29 30 31 32 33 34 35 36 37 38 39 40 41 42 43 44 45 46 47 48 49 50
000
ASUS43 KTOP 160359
RWRKS

WEATHER ROUNDUP FOR KANSAS
NATIONAL WEATHER SERVICE GOODLAND KS
1100 PM CDT TUE APR 15 2014

NOTE:  "FAIR" INDICATES FEW OR NO CLOUDS BELOW 12,000 FEET WITH NO
SIGNIFICANT WEATHER AND/OR OBSTRUCTIONS TO VISIBILITY.

KSZ001>006-013>018-027>032-041>047-160500-
NORTHWEST KANSAS

CITY           SKY/WX    TMP DP  RH WIND       PRES   REMARKS
GOODLAND       CLEAR     43  26  51 S13       29.72F
HAYS           PTCLDY    48  21  34 S13       29.80F
HILL CITY      CLEAR     54  23  30 S16G25    29.75F
RUSSELL        PTCLDY    52  21  29 S21G28    29.79F
$$

KSZ061>065-074>080-084>089-160500-
SOUTHWEST KANSAS

CITY           SKY/WX    TMP DP  RH WIND       PRES   REMARKS
DODGE CITY     CLEAR     52  16  24 S24G30    29.82F
ELKHART          N/A     51  22  32 S17         N/A
GARDEN CITY    MOCLDY    52  20  28 S16       29.77F
GREAT BEND     MOCLDY    54  19  26 S22G29    29.83F
LIBERAL        PTCLDY    54  16  22 S21       29.81F
$$

KSZ066>073-081>083-090>101-160500-
SOUTHEAST KANSAS

CITY           SKY/WX    TMP DP  RH WIND       PRES   REMARKS
CHANUTE        MOCLDY    47  29  49 SE12      30.05F
COFFEYVILLE    CLEAR     48  28  46 SE10      30.07S
HUTCHINSON     MOCLDY    53  15  22 S17G25    29.91S
MEDICINE LODGE   N/A     54  20  26 S12G22    29.91S
NEWTON         PTCLDY    50  16  25 S17G24    29.96F
PARSONS        PTCLDY    49  27  42 SE7       30.07F
WICHITA INTL   PTCLDY    53  16  23 S16       29.94F
WICHITA JABRA  PTCLDY    51  20  29 S15       29.95F
WINFIELD       CLEAR     50  23  34 S14       30.00F
$$

KSZ007>012-019>026-033>040-048>060-102>105-160500-
NORTHEAST KANSAS

CITY           SKY/WX    TMP DP  RH WIND       PRES   REMARKS
CONCORDIA      PTCLDY    52  17  25 S23G31    29.84F
EMPORIA        MOCLDY    48  27  44 S17G26    29.98F
LAWRENCE       PTCLDY    47  30  51 SE13      30.02S
MANHATTAN      CLEAR     51  23  33 S14G22    29.92F HAZE
OLATHE IND     PTCLDY    46  28  49 SE15      30.04S
OLATHE EXE     PTCLDY    45  28  51 S14       30.04R
SALINA         MOCLDY    53  16  23 S17       29.88F
TOPEKA BILLARD CLEAR     50  29  44 S15       29.99F
TOPEKA FORBES  PTCLDY    48  29  47 SE16      29.98F
$$



USA.gov is the U.S. government's official web portal to all federal, state and local government web resources and services.